Find Starlink 34517

NORAD ID: 64595 Int'l Des: 2025-137 Owner: SPXS Country: US Constellation: starlink operational
LEOCIRCULAR

現在のビュー

3D地球を読み込み中...

About Starlink 34517

Starlink 34517 (NORAD 64595) is a starlink constellation satellite (v2 mini) launched Jun 25, 2025 by SPXS of US. It operates in LEO, CIRCULAR orbit with a mass of 575.00 kg.

Starlink 34517について

説明を読み込み中...

次回通過

Passes for default location (London). Set your location on the main map for personalized predictions.

高度履歴

Loading altitude history...

軌道要素

1 64595U 25137B 26194.97937259 .00012800 00000-0 38951-3 0 9990
2 64595 53.1579 107.7001 0001125 78.3061 281.8068 15.34385034 60084
Epoch: Jul 13, 2026 • Age: 12 hours

現在のステータス

高度 473.3 km
遠地点 / 近地点 N/A
速度 7.63 km/s
衛星直下点 -32.72°S, 33.08°W
打ち上げ日 Jun 25, 2025
運用期間 1 year
タイプ internet

技術仕様

分類 Payload
質量 575.00 kg
乾燥質量 530.00 kg
総質量 575.00 kg
長さ 0.30 m
直径 4.10 m
スパン 29.00 m
形状 Box + pan
製造者 SPXS
バスタイプ Starlink V2MO
フェーズステータス In Orbit
所有者/国 SPXS/US

Most Searched